Location: ????????
(60.4333°N, 46.4710°E)
Time: 18:53:33
(UTC+00:00)

Cosmos 1606 - Pass Details

Date: 25 November 2020
Orbit: 502 x 528 km, 82.5° (Epoch: 17 January)

Event Time Altitude Azimuth Distance (km) Brightness Sun altitude
Rises 13:38:19 0° 150° (SSE) 2,664 6.3 -10.7°
Reaches altitude 10° 13:40:52 10° 133° (SE) 1,778 5.2 -11.0°
Maximum altitude 13:43:44 20° 86° (E) 1,271 4.1 -11.3°
Enters shadow 13:45:03 17° 59° (ENE) 1,394 4.2 -11.4°
